Weather History for KTDZ - December, 2012

Change the Weather History Date:

Tuesday, December 11, 2012

  Actual Average (KTOL) Record (KTOL)
Temperature  
Mean Temperature 32 °F 31 °F  
Max Temperature 37 °F 37 °F 64 °F (1931)
Min Temperature 27 °F 24 °F -12 °F (1977)
Degree Days  
Heating Degree Days 32 34  
Month to date heating degree days 355  
Since 1 July heating degree days 1588  
Cooling Degree Days 0 0  
Month to date cooling degree days 0  
Year to date cooling degree days 793  
Moisture  
Dew Point 24 °F    
Average Humidity 73    
Maximum Humidity 82    
Minimum Humidity 59    
Precipitation  
Precipitation 0.00 in 0.08 in - ()
Month to date precipitation 0.99  
Year to date precipitation 32.55  
Snow  
Snow 0.00 in 0.30 in - ()
Month to date snowfall 2.1  
Since 1 July snowfall 4.2  
Snow Depth -    
Sea Level Pressure  
Sea Level Pressure 30.06 in    
Wind  
Wind Speed 7 mph (WSW)    
Max Wind Speed 17 mph    
Max Gust Speed 23 mph    
Visibility 10 miles    
Events Snow    
T = Trace of Precipitation, MM = Missing Value Source: NWS Daily Summary

Daily Weather History Graph

Daily Weather History Graph

Search for Another Location

Airport or City:

Trip Planner

Search our weather history database for the weather conditions in past years. The results will help you decide how hot, cold, wet, or windy it might be!

Date:

Astronomy

Dec. 11, 2012 Rise Set
Actual Time 7:50 AM EST 5:03 PM EST
Civil Twilight 7:19 AM EST 5:35 PM EST
Nautical Twilight 6:44 AM EST 6:10 PM EST
Astronomical Twilight 6:10 AM EST 6:43 PM EST
Moon 5:43 AM EST (12/11) 3:42 PM EST (12/11)
Length of Visible Light 10h 15m
Length of Day
9h 13m
Waning Crescent, 4% of the Moon is Illuminated
Dec 11
Waning Crescent
Dec 13
New
Dec 20
First Quarter
Dec 28
Full
Jan 4
Last Quarter

Hourly Weather History & Observations

Time (EST) Temp. Windchill Dew Point Humidity Pressure Visibility Wind Dir Wind Speed Gust Speed Precip Events Conditions
12:53 AM 34.0 °F 29.8 °F 27.0 °F 75% 29.90 in 10.0 mi West 4.6 mph - N/A   Overcast
1:53 AM 34.0 °F 29.8 °F 27.0 °F 75% 29.91 in 10.0 mi West 4.6 mph - N/A   Overcast
2:53 AM 33.1 °F 25.5 °F 26.1 °F 75% 29.92 in 10.0 mi NW 9.2 mph - N/A   Overcast
3:53 AM 32.0 °F 27.5 °F 24.1 °F 73% 29.94 in 10.0 mi WNW 4.6 mph - N/A   Overcast
4:53 AM 30.9 °F 26.2 °F 24.1 °F 76% 29.96 in 10.0 mi WNW 4.6 mph - N/A   Overcast
5:53 AM 30.9 °F 26.2 °F 23.0 °F 72% 29.98 in 10.0 mi WNW 4.6 mph - N/A   Overcast
6:53 AM 30.9 °F 26.2 °F 24.1 °F 76% 30.00 in 10.0 mi WSW 4.6 mph - N/A   Overcast
7:53 AM 30.0 °F 26.5 °F 25.0 °F 82% 30.02 in 10.0 mi West 3.5 mph - N/A   Mostly Cloudy
8:53 AM 32.0 °F - 26.1 °F 79% 30.04 in 10.0 mi Calm Calm - N/A   Overcast
9:02 AM 32.0 °F - 26.6 °F 80% 30.03 in 10.0 mi Calm Calm - N/A   Overcast
9:46 AM 32.0 °F 25.6 °F 26.6 °F 80% 30.05 in 2.5 mi WSW 6.9 mph - 0.00 in Snow Light Snow
9:53 AM 32.0 °F 27.5 °F 27.0 °F 82% 30.06 in 4.0 mi WSW 4.6 mph - 0.00 in Snow Light Snow
10:02 AM 33.8 °F 27.7 °F 26.6 °F 75% 30.05 in 9.0 mi WSW 6.9 mph - 0.00 in   Overcast
10:53 AM 34.0 °F 24.6 °F 28.0 °F 79% 30.08 in 10.0 mi WSW 13.8 mph 18.4 mph 0.00 in   Mostly Cloudy
11:53 AM 37.0 °F 27.7 °F 25.0 °F 62% 30.07 in 10.0 mi WSW 16.1 mph - N/A   Partly Cloudy
12:53 PM 35.1 °F 24.8 °F 21.9 °F 59% 30.08 in 10.0 mi WSW 17.3 mph 23.0 mph N/A   Mostly Cloudy
1:53 PM 34.0 °F 24.6 °F 23.0 °F 64% 30.09 in 10.0 mi WSW 13.8 mph - N/A   Overcast
2:53 PM 35.1 °F 25.2 °F 23.0 °F 61% 30.10 in 10.0 mi WSW 16.1 mph - N/A   Overcast
3:53 PM 34.0 °F 23.8 °F 21.0 °F 59% 30.11 in 10.0 mi WSW 16.1 mph - N/A   Overcast
4:53 PM 33.1 °F 24.4 °F 21.9 °F 64% 30.13 in 10.0 mi WSW 11.5 mph - N/A   Overcast
5:53 PM 30.9 °F 22.8 °F 21.0 °F 67% 30.14 in 10.0 mi SSW 9.2 mph - N/A   Scattered Clouds
6:53 PM 30.0 °F 22.4 °F 21.0 °F 69% 30.15 in 10.0 mi SW 8.1 mph - N/A   Clear
7:53 PM 30.0 °F 22.4 °F 21.9 °F 72% 30.16 in 10.0 mi SSW 8.1 mph - N/A   Clear
8:53 PM 30.0 °F 21.1 °F 21.9 °F 72% 30.17 in 10.0 mi SSW 10.4 mph - N/A   Clear
9:53 PM 28.9 °F 19.8 °F 21.9 °F 75% 30.18 in 10.0 mi SSW 10.4 mph - N/A   Clear
10:53 PM 28.0 °F 20.8 °F 21.9 °F 78% 30.20 in 10.0 mi SSW 6.9 mph - N/A   Clear
11:53 PM 27.0 °F 19.5 °F 21.9 °F 81% 30.23 in 10.0 mi SW 6.9 mph - N/A   Clear